Location: Mount Nemo Observatory
(43.4112°N, 79.8736°W)
Time: 04:24:53
(UTC-05:00)

N. Korean satellite - Visible Passes

Search period start: 20 November 2017 00:00
Search period end: 30 November 2017 00:00
Orbit: 460 x 515 km, 97.2° (Epoch: 19 November)

Date Brightness Start Highest point End Pass type
(mag) Time Alt. Az. Time Alt. Az. Time Alt. Az.
20 Nov 6.6 18:01:21 10° SSE 18:04:45 53° ENE 18:08:15 10° N visible
21 Nov 7.4 17:38:22 10° SE 17:41:23 27° ENE 17:44:27 10° N visible
21 Nov 9.4 19:12:26 10° SW 19:14:56 18° W 19:17:28 10° NW visible
22 Nov 8.8 06:37:24 10° NNE 06:40:48 32° E 06:44:12 10° SSE visible
22 Nov 8.2 18:48:04 10° SSW 18:51:18 35° W 18:54:38 10° NNW visible
23 Nov 9.8 06:14:36 10° NE 06:17:11 17° E 06:19:45 10° SE visible
23 Nov 6.7 18:24:15 10° S 18:27:45 73° WSW 18:31:22 10° NNW visible
24 Nov 6.6 18:00:50 10° SSE 18:04:17 53° ENE 18:07:49 10° N visible
25 Nov 7.5 17:37:51 10° SE 17:40:54 27° ENE 17:44:01 10° N visible
25 Nov 9.4 19:11:53 10° SW 19:14:27 19° W 19:17:03 10° NW visible
26 Nov 8.8 06:36:55 10° NNE 06:40:21 32° E 06:43:44 10° SSE visible
26 Nov 8.2 17:15:27 10° ESE 17:17:36 15° ENE 17:19:46 10° NNE visible
26 Nov 8.2 18:47:31 10° SSW 18:50:48 35° W 18:54:10 10° NNW visible
27 Nov 9.8 06:14:07 10° NE 06:16:42 17° E 06:19:16 10° SE visible
27 Nov 6.7 18:23:42 10° S 18:27:14 74° WSW 18:30:53 10° NNW visible
28 Nov 6.6 18:00:17 10° SSE 18:03:45 53° ENE 18:07:19 10° N visible
29 Nov 7.5 17:37:16 10° SE 17:40:21 27° ENE 17:43:30 10° N visible
29 Nov 9.4 19:11:16 10° SW 19:13:53 19° W 19:16:33 10° NW visible
